格洛纳斯M-719 COSMOS 2432 [GLONASS-M]

导读

COSMOS 2432(又名宇宙2432)是独联体(CIS)发射的格洛纳斯(GLONASS)导航卫星,于2007年10月26日发射升空,作为俄全球卫星导航系统组网卫星,它配备铯原子钟、太阳能电池板等设备,主要承担全球导航定位、授时服务任务,是格洛纳斯系统补网完善星座的重要组成,支撑系统持续提供定位服务。

基本信息
目录编号:
32276
目录名称:
COSMOS 2432 (GLONASS)
国际标识:
2007-052B
轨道中心:
EARTH
卫星名称:
格洛纳斯M-719
卫星全名:
格洛纳斯M-719 COSMOS 2432 [GLONASS-M]
卫星状态:
在轨 (已飞行6808 天)
发射日期:
2007-10-26 UTC
国别 :
俄罗斯(独联体) (CIS)
星等 :
--
轨道信息
数据来源 国际轨道数据 AOE轨道数据
星历时间 2026-06-16T09:13:34+0800
12小时前
查看轨道信息
2026-06-16T09:00:00+0800
12小时前
查看轨道信息
半长轴 25507.945km 25507.913km
偏心率 0.0007701 0.0007734
轨道倾角 65.595° 65.594°
近地点辐角 331.685° 331.884°
升交点赤经 316.100° 316.099°
平近点角 28.936° 21.513°
近地点 19110.164km 19110.048km
远地点 19149.452km 19149.504km
周期 675.730分钟 675.728分钟
每日圈数 2.13103 2.131034
详细信息
平衡模式:
三轴稳定
覆盖范围:
全球
运营商:
列舍特涅夫卫星信息系统
运营商所在国:
俄罗斯
制造商(研发单位):
列舍特涅夫卫星信息系统
制造商所在国:
俄罗斯
使用方式:
暂无
卫星简介
格洛纳斯(GLONASS )是苏联/俄罗斯研制卫星导航系统。标准配置为24颗卫星,其中18颗卫星就能保证该系统为俄罗斯境内用户提供全部服务。该卫星仍在工作。
2D轨道图
3D轨道图
轨道高度分析图
轨道倾角分析图
轨道综合分析图
查看轨道综合分析图